Temperature
4 6 6 6 5 6 6 6 7 7 6 6 6 7 7 7 6 6 6 5 4 4 4 4 4 5 5 5 5 6 6 6 6 7 7 7 8 8 8 8 9 9 9 9
6 5 4 4 4 5 5 6 6 6 6 5 5 6 7 6 6 5 5 4 4 3 3 3 4 4 4 4 5 5 5 6 6 6 6 7 7 8 8 8 8 9 9 9
6 4 3 4 4 4 5 5 5 5 5 5 5 7 7 6 5 4 4 4 3 3 3 3 3 4 4 4 4 5 5 5 5 5 6 6 6 7 7 7 8 8 8 8
4 3 3 4 3 3 5 4 4 4 4 5 5 7 7 6 6 5 4 4 3 3 2 2 2 3 3 3 4 4 4 5 5 5 5 5 6 6 7 7 7 7 7 8
3 2 3 3 3 3 3 3 3 3 4 4 4 4 7 5 5 5 4 3 3 2 2 2 2 2 3 3 3 4 4 4 4 4 5 5 5 6 6 6 6 7 7 7
2 2 2 2 2 2 2 3 3 3 4 4 4 5 7 5 4 4 3 2 2 2 2 2 2 2 2 3 3 3 3 3 4 4 4 4 5 5 6 6 6 6 6 7
2 2 1 1 2 2 2 3 5 5 5 6 4 4 5 4 3 3 2 2 1 1 1 1 1 2 2 2 2 2 3 3 3 3 4 4 4 5 5 6 6 6 6 6
3 3 1 1 1 1 1 3 4 5 6 6 3 4 5 3 2 1 1 1 1 1 1 1 1 1 1 2 2 2 2 2 2 3 3 4 4 4 5 5 5 5 5 6
3 3 1 0 0 1 1 2 1 3 2 3 5 4 4 3 2 1 1 0 0 0 0 0 1 1 1 1 2 2 2 2 2 2 2 3 3 4 4 4 5 5 5 5
0 1 1 0 0 -0 0 0 1 2 3 5 5 5 5 3 2 1 1 0 -0 -1 -0 -0 0 0 1 1 1 2 2 2 2 2 2 2 3 3 3 4 4 4 5 5
-1 -0 1 0 -0 0 -1 -0 0 1 2 4 5 5 3 2 1 0 -0 -1 -1 -1 -1 -1 0 0 0 1 1 1 1 2 2 2 2 2 2 3 3 3 4 4 4 4
-2 -0 0 0 -1 -1 -1 -0 -0 1 1 1 3 4 1 -0 -1 -1 -1 -2 -2 -2 -2 -1 -1 -0 -0 0 0 1 1 1 1 1 1 2 2 2 3 3 3 4 4 4
-2 -1 1 2 -0 -2 -2 -2 -2 -1 -0 1 2 3 0 -1 -1 -2 -2 -2 -2 -2 -2 -2 -1 -1 -1 -0 -0 0 0 1 1 1 1 1 1 2 2 3 3 3 4 4
-2 -2 -0 2 2 -0 -2 -2 -3 -2 -1 0 1 2 1 0 -0 -1 -2 -3 -3 -3 -2 -2 -2 -2 -1 -1 -1 -0 -0 0 0 0 1 1 1 1 2 2 3 3 3 3
-2 -2 -2 -2 -2 -2 -2 -2 -3 -3 -2 -1 0 -0 -0 -0 -1 -2 -3 -3 -3 -3 -3 -3 -3 -2 -2 -2 -1 -1 -1 -0 -0 0 0 1 1 1 1 2 2 3 3 3
-3 -3 -3 -3 -3 -3 -3 -2 -2 -3 -2 -2 -2 -1 -1 -2 -3 -3 -3 -4 -4 -4 -4 -4 -3 -3 -3 -2 -2 -2 -1 -1 -1 -0 0 0 1 1 1 1 2 2 2 2
-4 -4 -3 -1 -3 -3 -1 -2 -3 -3 -3 -3 -2 -1 -2 -3 -3 -4 -4 -4 -4 -5 -4 -4 -4 -4 -3 -3 -3 -2 -2 -1 -1 -1 -0 -0 0 1 1 1 1 1 2 2
-5 -4 -3 -2 -3 -2 -0 -3 -3 -3 -3 -4 -3 -3 -3 -4 -4 -5 -4 -5 -5 -5 -5 -5 -4 -4 -4 -4 -3 -3 -2 -2 -2 -1 -1 -1 -0 0 0 1 1 1 1 1
-5 -4 -3 -3 -2 -1 -1 -4 -4 -4 -3 -4 -4 -4 -4 -5 -5 -4 -4 -5 -5 -5 -5 -5 -5 -5 -4 -4 -4 -3 -3 -2 -2 -1 -1 -1 -1 -0 -0 0 1 1 1 1
-6 -6 -4 -4 -2 -1 -1 -4 -6 -5 -3 -4 -5 -5 -5 -5 -3 -2 -4 -5 -5 -5 -5 -5 -5 -5 -4 -4 -4 -4 -3 -3 -2 -2 -2 -1 -1 -1 -0 -0 0 0 0 0
-6 -6 -5 -4 -3 -2 -3 -6 -6 -3 -2 -4 -6 -6 -6 -6 -5 -5 -5 -5 -6 -6 -6 -5 -5 -5 -5 -4 -4 -4 -4 -3 -3 -2 -2 -2 -1 -1 -1 -1 -0 -0 -0 -0
-5 -5 -5 -5 -4 -3 -5 -6 -4 -3 -5 -5 -6 -6 -7 -6 -6 -6 -6 -6 -6 -6 -6 -6 -6 -5 -5 -5 -5 -4 -4 -4 -3 -3 -2 -2 -2 -2 -1 -1 -1 -1 -1 -1
-6 -5 -4 -5 -3 -4 -6 -5 -5 -5 -6 -6 -6 -6 -7 -7 -7 -7 -7 -6 -6 -6 -6 -6 -6 -6 -5 -5 -5 -5 -4 -4 -4 -3 -3 -2 -2 -2 -2 -2 -1 -1 -1 -1
-6 -8 -7 -7 -5 -6 -6 -6 -6 -6 -6 -6 -6 -6 -7 -7 -7 -7 -7 -7 -7 -6 -6 -6 -6 -6 -6 -6 -5 -5 -5 -4 -4 -4 -3 -3 -3 -2 -2 -2 -2 -2 -2 -2
-5 -8 -7 -7 -6 -6 -6 -6 -6 -6 -6 -6 -6 -7 -7 -7 -7 -7 -7 -7 -7 -7 -7 -7 -7 -6 -6 -6 -6 -5 -5 -5 -4 -4 -4 -4 -3 -3 -3 -2 -2 -2 -2 -2
-7 -7 -6 -5 -5 -6 -5 -5 -6 -6 -7 -7 -7 -7 -7 -7 -7 -7 -7 -7 -7 -7 -7 -7 -7 -7 -6 -6 -6 -6 -5 -5 -5 -5 -4 -4 -4 -3 -3 -3 -2 -2 -2 -2
Wind_Speed
1 1 2 3 4 5 5 7 9 8 5 6 10 12 11 8 8 8 6 5 5 5 4 3 3 2 2 2 3 3 3 3 3 3 3 3 3 2 2 2 3 5 4 6
2 2 3 4 3 5 6 8 8 7 4 6 9 13 10 8 8 7 6 5 5 5 4 4 4 3 2 3 4 4 3 4 4 4 4 3 3 3 2 2 3 4 5 6
3 1 2 3 2 5 7 8 8 8 7 6 7 8 6 5 5 5 5 5 5 5 5 4 4 4 4 4 4 4 4 4 4 4 3 2 2 2 2 3 3 4 4 5
1 2 2 2 3 4 6 5 7 8 6 4 3 6 6 5 5 5 5 5 5 5 5 5 5 5 5 5 5 5 4 4 4 4 4 5 5 4 4 4 3 4 4 5
1 1 2 3 4 4 4 5 6 7 6 6 5 6 6 4 6 5 4 4 5 5 5 6 6 6 6 5 4 4 4 4 4 4 5 6 5 4 3 3 4 5 4 5
1 1 2 2 3 3 3 3 3 4 4 6 6 6 6 4 5 4 4 5 5 5 6 6 6 6 6 5 4 4 4 5 5 5 5 6 6 5 4 5 5 5 4 4
1 1 1 2 3 1 1 2 2 3 4 5 3 6 6 3 4 6 6 5 5 5 6 6 6 6 6 5 5 4 5 5 5 5 5 6 6 6 6 6 6 5 5 4
3 2 1 2 1 2 2 2 2 4 5 5 3 6 3 1 3 4 5 5 5 5 6 7 7 6 6 6 5 5 5 5 5 5 5 6 6 5 5 6 6 6 5 5
2 3 1 2 2 2 1 1 2 3 3 5 5 4 4 2 2 2 4 4 6 6 7 7 7 7 6 6 6 6 5 5 5 5 6 6 6 5 6 7 6 6 5 5
1 3 2 2 1 1 1 1 1 3 4 5 6 6 3 2 3 4 6 6 7 8 8 7 6 7 6 6 5 5 5 5 5 5 5 5 6 6 6 6 6 6 7 6
2 2 2 1 2 2 1 2 2 2 3 5 6 4 0 3 4 5 6 7 8 9 9 8 7 6 6 5 5 4 4 4 4 5 5 5 6 6 6 6 6 7 7 7
2 2 4 3 1 1 3 3 3 3 4 4 5 5 2 2 4 5 7 8 9 9 8 8 7 7 6 5 5 3 4 4 4 5 5 6 5 6 6 6 6 7 7 7
3 2 3 2 2 2 2 3 4 3 3 5 6 6 1 3 6 7 8 9 9 9 8 8 7 6 6 5 5 4 4 4 4 5 5 5 5 6 6 6 6 6 7 7
2 3 5 7 5 2 5 5 5 6 5 7 10 12 10 9 9 10 10 10 9 9 8 8 8 7 7 6 5 5 5 5 4 4 4 5 5 5 6 6 6 6 6 7
2 4 5 8 9 7 9 9 9 10 10 10 11 12 14 11 10 10 9 9 9 9 9 9 8 8 8 7 6 6 6 6 5 5 5 5 5 4 5 5 6 6 6 7
2 3 3 6 6 7 10 12 12 12 12 14 15 16 11 9 7 8 9 9 9 9 10 10 10 9 8 8 7 7 6 6 6 5 5 5 4 4 4 4 5 6 6 6
3 3 3 5 5 7 9 8 10 8 8 8 11 10 7 8 8 8 9 8 8 9 10 10 10 9 9 8 7 7 7 6 6 5 5 5 4 4 4 4 4 5 5 5
4 4 3 4 4 7 3 1 4 6 8 9 10 10 8 9 9 8 8 7 8 9 9 10 9 9 9 9 8 7 6 6 5 6 6 5 5 4 4 4 3 3 3 4
5 5 3 3 5 8 5 2 2 4 7 5 8 9 9 8 7 7 5 6 7 8 9 9 9 9 8 8 8 7 6 5 5 6 6 6 5 5 4 4 3 3 3 3
2 4 4 4 5 6 2 1 0 2 5 1 3 6 7 5 6 6 6 7 9 9 8 8 8 8 8 8 7 7 6 6 6 7 7 7 5 5 5 4 3 3 3 3
3 4 6 7 7 7 2 1 2 3 4 3 3 5 5 5 7 8 10 9 8 8 9 8 8 7 8 8 7 6 6 6 7 7 7 6 5 5 5 4 3 2 2 2
5 5 6 5 6 7 3 4 4 4 4 3 5 5 6 8 9 9 10 9 9 9 8 8 8 8 8 7 7 7 7 8 7 7 6 6 5 4 3 3 3 1 1 2
6 6 4 7 6 2 4 5 4 3 4 5 6 6 7 8 9 9 9 9 9 8 8 7 8 8 8 7 7 7 8 8 7 6 5 5 5 4 3 2 2 1 1 1
5 3 5 7 9 8 7 7 7 6 6 7 7 7 7 8 9 9 9 8 8 7 7 6 7 7 8 8 7 7 7 7 6 5 5 5 4 4 3 2 2 1 1 2
5 5 5 8 9 8 7 8 8 7 7 8 8 7 8 8 9 9 8 8 7 7 7 6 6 7 8 8 7 7 7 6 5 5 4 4 4 4 3 2 2 2 2 2
5 7 6 8 6 6 8 6 5 6 8 8 8 7 7 7 8 8 7 7 7 7 7 7 7 7 8 7 7 7 7 5 4 4 4 3 3 3 2 2 3 3 2 3
Wind_Direction
35 163 240 265 254 250 258 256 264 267 275 267 260 267 273 267 243 241 243 248 255 256 269 292 290 291 295 290 281 266 257 252 238 227 226 221 212 214 220 209 208 200 193 184
173 236 267 276 258 241 254 258 268 275 272 270 274 275 270 252 234 233 234 240 260 264 278 294 304 305 296 284 277 270 261 248 235 233 231 223 227 215 217 212 212 204 195 183
203 283 276 252 257 254 254 250 266 279 290 258 275 268 234 226 220 231 238 244 254 252 263 278 288 287 287 283 276 266 256 251 240 235 223 218 216 205 209 218 211 201 198 190
290 278 265 249 264 273 264 256 266 272 273 266 267 272 241 216 226 235 241 245 250 257 267 274 280 282 278 275 273 265 257 252 243 227 219 215 214 212 219 213 211 206 199 193
271 318 303 268 284 270 268 294 265 255 251 262 241 248 252 223 232 247 260 267 263 259 267 273 277 280 276 272 270 263 255 250 245 232 224 219 221 220 217 205 206 202 203 199
253 283 315 309 309 285 284 265 239 224 230 245 233 234 257 229 240 265 279 285 284 286 281 277 281 287 282 274 267 263 256 250 243 234 229 225 223 219 218 214 206 202 205 206
326 244 319 325 312 331 329 275 271 245 229 241 207 233 249 245 245 257 271 291 301 294 293 290 292 288 285 273 264 258 253 247 240 234 231 232 229 224 221 222 212 206 208 214
309 296 9 358 316 302 282 260 255 271 266 276 240 241 248 275 275 278 277 286 303 305 304 301 297 292 287 273 258 250 247 245 240 236 237 236 233 231 230 229 221 213 214 216
287 282 354 342 322 279 243 225 296 268 273 270 253 262 281 262 290 300 306 311 312 313 308 304 306 304 294 283 268 248 242 243 241 239 240 239 235 236 237 234 226 217 219 219
264 272 284 310 255 67 321 190 200 223 257 266 267 253 257 287 316 335 330 322 319 318 315 312 310 309 305 294 280 260 244 241 245 241 241 242 237 239 242 231 224 218 217 218
237 250 279 268 235 253 179 182 229 241 265 260 268 263 275 285 312 312 318 322 320 320 320 315 310 309 309 309 296 260 251 252 250 248 247 247 242 243 245 235 230 221 216 215
204 251 269 264 261 283 223 218 207 240 247 250 269 271 51 310 315 313 315 319 319 318 320 319 317 316 319 320 315 288 262 255 255 255 253 249 246 245 241 240 237 224 216 215
173 214 281 258 196 185 224 224 227 244 249 239 249 263 35 332 318 317 317 319 320 319 323 324 325 321 317 316 317 313 296 280 266 257 254 252 248 244 240 242 243 231 222 215
181 224 241 268 299 269 256 247 227 217 235 250 248 268 288 306 312 319 320 320 320 319 323 324 323 320 314 312 311 312 311 304 287 271 267 268 258 250 247 246 245 234 224 216
201 243 248 266 280 276 264 257 238 228 237 251 267 271 285 301 309 312 314 316 318 320 324 324 321 319 317 315 314 312 310 310 305 288 276 273 267 260 259 250 245 229 219 218
224 243 261 272 269 273 272 260 248 246 249 253 267 277 287 300 307 308 312 316 317 317 320 322 322 320 317 314 312 309 308 308 305 295 287 285 279 268 261 254 246 226 216 213
201 201 248 272 297 290 269 250 233 239 241 241 255 272 301 303 303 306 310 311 310 311 315 318 316 314 315 314 309 305 304 302 296 292 291 290 282 276 267 253 249 234 217 212
191 199 235 277 290 257 280 58 228 239 259 245 258 280 294 297 302 296 296 299 306 309 312 313 313 312 312 312 311 307 303 299 295 292 292 293 287 279 274 255 247 252 239 220
207 201 224 245 264 274 276 246 228 243 277 252 256 278 295 310 299 291 297 300 300 304 306 306 306 306 307 310 313 311 308 305 300 297 297 294 288 283 274 261 248 245 244 234
167 206 226 230 252 261 300 93 233 238 272 282 262 287 308 314 298 312 325 310 304 308 309 308 307 308 309 313 314 310 308 307 301 299 297 292 285 280 275 271 262 253 243 236
182 201 220 233 247 267 290 147 178 245 316 344 287 293 297 284 286 310 315 310 306 309 314 316 314 311 311 313 311 305 306 304 303 303 298 296 291 283 276 278 273 254 237 215
198 199 209 212 229 254 148 154 210 282 325 302 297 293 286 287 296 304 307 308 311 314 316 319 316 314 316 318 313 307 305 306 308 305 303 303 299 293 283 280 280 260 224 198
218 218 222 217 237 303 192 230 262 296 289 290 291 289 284 288 293 298 302 304 307 310 313 315 314 313 316 317 315 307 308 310 308 311 311 309 306 300 294 282 274 260 231 208
235 227 241 258 263 266 260 260 265 264 266 278 282 283 280 281 289 293 294 296 300 307 311 313 312 313 315 318 314 307 310 314 313 313 314 314 310 311 306 300 277 264 252 227
233 195 234 259 274 288 268 255 259 263 268 275 279 277 275 280 286 289 292 294 298 303 307 309 310 311 314 320 321 322 320 320 316 313 315 316 312 312 314 311 295 276 275 268
213 210 223 253 259 261 282 285 270 266 273 276 279 284 281 275 280 289 292 294 298 302 307 310 311 312 315 320 321 325 325 322 315 311 314 315 315 318 323 327 332 335 308 326
Height
1520 1519 1517 1519 1520 1518 1516 1514 1509 1508 1511 1511 1504 1501 1499 1501 1502 1502 1502 1502 1502 1501 1502 1501 1501 1501 1501 1501 1501 1501 1502 1502 1503 1504 1505 1506 1508 1510 1512 1513 1515 1517 1519 1522
1518 1519 1523 1523 1522 1520 1517 1513 1509 1508 1511 1510 1504 1499 1496 1498 1499 1500 1500 1500 1500 1499 1498 1498 1497 1497 1498 1498 1498 1498 1498 1499 1500 1501 1502 1503 1505 1507 1509 1510 1511 1513 1515 1518
1517 1522 1524 1522 1520 1519 1515 1513 1511 1511 1509 1509 1507 1493 1492 1494 1496 1498 1498 1498 1498 1497 1496 1495 1495 1494 1494 1494 1494 1494 1495 1495 1496 1498 1499 1500 1501 1503 1505 1507 1508 1510 1512 1514
1521 1524 1523 1520 1519 1519 1512 1514 1515 1513 1509 1502 1505 1490 1485 1490 1492 1493 1494 1495 1495 1494 1494 1493 1493 1492 1491 1491 1491 1490 1491 1492 1493 1494 1495 1496 1498 1499 1501 1503 1504 1506 1508 1511
1522 1524 1522 1520 1519 1519 1515 1516 1515 1512 1510 1507 1504 1500 1481 1489 1488 1490 1492 1493 1493 1493 1492 1491 1490 1490 1489 1488 1487 1487 1488 1488 1489 1490 1491 1493 1494 1495 1498 1499 1501 1503 1505 1507
1525 1526 1525 1523 1522 1520 1518 1516 1513 1511 1508 1501 1498 1497 1479 1485 1488 1489 1491 1491 1490 1490 1489 1488 1488 1487 1486 1485 1484 1484 1484 1484 1485 1486 1487 1489 1490 1491 1493 1496 1497 1499 1501 1503
1522 1524 1525 1525 1521 1519 1518 1513 1502 1496 1493 1486 1499 1497 1485 1487 1489 1490 1490 1490 1489 1488 1487 1486 1484 1483 1482 1481 1481 1480 1480 1480 1481 1482 1483 1485 1486 1488 1489 1491 1493 1495 1497 1499
1518 1516 1525 1525 1524 1521 1520 1516 1507 1497 1485 1482 1497 1490 1484 1490 1490 1490 1489 1488 1487 1486 1485 1483 1482 1480 1479 1478 1478 1477 1477 1477 1478 1478 1479 1481 1483 1484 1486 1488 1490 1491 1493 1495
1520 1519 1526 1526 1526 1524 1520 1517 1520 1514 1510 1503 1485 1487 1486 1487 1488 1488 1488 1487 1486 1484 1483 1480 1479 1477 1476 1475 1474 1474 1474 1474 1475 1476 1477 1477 1479 1480 1482 1484 1486 1488 1489 1491
1530 1527 1525 1527 1526 1526 1525 1523 1520 1513 1502 1489 1481 1482 1480 1484 1486 1487 1487 1486 1484 1483 1481 1478 1476 1475 1473 1472 1471 1471 1471 1471 1472 1472 1473 1474 1475 1477 1478 1479 1481 1483 1485 1487
1533 1530 1525 1525 1525 1522 1525 1525 1521 1515 1511 1495 1482 1478 1487 1488 1488 1489 1488 1486 1485 1482 1480 1477 1475 1473 1471 1470 1469 1468 1469 1469 1469 1469 1470 1471 1472 1473 1474 1475 1476 1478 1480 1482
1533 1529 1523 1522 1526 1526 1524 1522 1521 1513 1511 1510 1494 1487 1490 1491 1490 1490 1488 1487 1484 1481 1478 1476 1473 1471 1469 1468 1466 1466 1466 1466 1466 1466 1467 1467 1468 1468 1469 1470 1471 1474 1475 1477
1532 1531 1519 1511 1522 1527 1526 1524 1524 1522 1516 1508 1498 1487 1491 1491 1490 1489 1488 1485 1483 1480 1477 1474 1472 1470 1467 1465 1464 1463 1463 1463 1463 1463 1463 1463 1463 1463 1464 1465 1466 1468 1470 1472
1531 1529 1522 1510 1507 1517 1520 1522 1523 1521 1512 1502 1497 1488 1488 1489 1488 1487 1486 1484 1482 1479 1476 1473 1471 1468 1466 1464 1462 1460 1460 1460 1460 1460 1459 1458 1458 1459 1459 1460 1461 1462 1464 1466
1530 1526 1525 1521 1520 1520 1518 1517 1518 1517 1510 1503 1493 1492 1488 1489 1489 1487 1485 1482 1480 1478 1475 1472 1470 1467 1464 1462 1460 1458 1457 1457 1457 1456 1455 1455 1455 1455 1455 1455 1456 1457 1459 1461
1530 1527 1527 1522 1519 1519 1516 1511 1511 1510 1508 1504 1499 1493 1490 1490 1489 1487 1484 1481 1478 1476 1473 1470 1468 1465 1462 1460 1458 1456 1455 1454 1454 1453 1452 1451 1451 1451 1451 1451 1452 1453 1454 1456
1528 1529 1524 1512 1518 1515 1503 1502 1504 1503 1502 1501 1495 1490 1490 1489 1487 1485 1483 1480 1478 1475 1472 1469 1466 1463 1461 1459 1457 1454 1453 1452 1451 1450 1449 1449 1448 1448 1447 1448 1448 1448 1449 1451
1528 1527 1524 1516 1516 1507 1495 1502 1501 1500 1498 1497 1494 1491 1491 1489 1487 1484 1481 1479 1477 1474 1471 1468 1465 1462 1460 1457 1455 1453 1451 1450 1448 1447 1447 1446 1445 1445 1444 1444 1443 1443 1444 1445
1526 1525 1521 1517 1508 1496 1495 1500 1502 1500 1494 1493 1492 1490 1489 1488 1485 1480 1479 1477 1475 1473 1470 1467 1464 1461 1458 1455 1453 1450 1449 1447 1446 1445 1444 1443 1442 1441 1441 1440 1439 1439 1439 1440
1526 1526 1522 1518 1509 1496 1491 1500 1501 1501 1492 1490 1491 1489 1488 1487 1482 1478 1477 1475 1472 1470 1468 1465 1462 1459 1456 1453 1451 1448 1446 1445 1444 1443 1441 1440 1439 1438 1437 1436 1436 1435 1435 1435
1524 1523 1521 1515 1508 1496 1497 1500 1501 1495 1488 1490 1489 1488 1487 1486 1484 1480 1476 1473 1470 1468 1465 1462 1460 1457 1454 1452 1449 1447 1445 1443 1442 1440 1439 1438 1437 1435 1434 1433 1433 1432 1432 1433
1514 1513 1515 1513 1507 1497 1498 1498 1497 1492 1491 1489 1488 1487 1485 1483 1480 1477 1474 1471 1468 1465 1463 1460 1457 1455 1452 1450 1447 1445 1443 1441 1439 1438 1436 1435 1434 1433 1433 1432 1431 1431 1430 1430
1511 1508 1504 1504 1497 1494 1494 1493 1492 1491 1489 1488 1486 1484 1483 1480 1477 1475 1472 1469 1466 1464 1461 1458 1455 1452 1450 1447 1445 1442 1441 1439 1437 1435 1434 1433 1432 1432 1431 1430 1429 1428 1428 1428
1507 1508 1506 1502 1493 1492 1491 1490 1489 1488 1487 1485 1484 1482 1480 1477 1474 1472 1469 1466 1464 1461 1459 1456 1453 1450 1447 1445 1442 1440 1438 1437 1435 1433 1432 1432 1431 1430 1429 1429 1428 1427 1427 1427
1500 1503 1502 1498 1492 1490 1487 1486 1485 1484 1483 1482 1480 1478 1476 1474 1471 1469 1466 1463 1461 1458 1456 1453 1451 1448 1445 1442 1440 1438 1436 1434 1433 1431 1431 1430 1430 1429 1428 1427 1427 1427 1427 1427
1496 1496 1495 1489 1487 1487 1484 1482 1482 1481 1479 1478 1476 1474 1472 1470 1468 1466 1463 1461 1458 1456 1453 1451 1448 1446 1443 1440 1438 1436 1434 1432 1431 1430 1429 1429 1428 1427 1427 1426 1426 1426 1426 1426